Terminal Aerodrome Forecast
Issued by NWS

Home | Current Version | Previous Version | Text Only | Print | Product List | Glossary On
Versions: 1 2 3 4 5 6 7 8 9 10 11 12 13 14 15 16 17
415
FTUS43 KAPX 230523
TAFAPN
TAF
KAPN 230523Z 2306/2406 09005KT P6SM BKN040
     FM231500 11006KT P6SM VCSH BKN040
     FM231700 10008KT P6SM VCSH BKN025
     FM232100 08008KT P6SM VCSH OVC015
     FM240100 05009KT 4SM BR VCSH OVC015=

USA.gov is the U.S. government's official web portal to all federal, state and local government web resources and services.